QPF
0.00 0.00 0.00 0.00 0.00 0.00 0.01 0.00 0.00 0.00 0.00 0.00 0.00 0.01 0.03 0.04 0.04 0.10 0.06 0.08 0.11 0.05 0.02 0.01 0.00 0.00 0.00 0.00 0.00 0.00 0.00 0.00 0.00 0.00 0.00 0.00 0.00 0.00 0.00 0.00 0.00 0.00 0.00
0.00 0.00 0.00 0.00 0.00 0.00 0.00 0.00 0.01 0.00 0.00 0.01 0.02 0.02 0.03 0.05 0.06 0.08 0.07 0.08 0.07 0.03 0.03 0.02 0.00 0.00 0.00 0.00 0.00 0.00 0.00 0.00 0.00 0.00 0.00 0.00 0.00 0.00 0.00 0.00 0.00 0.00 0.00
0.00 0.00 0.00 0.00 0.00 0.00 0.00 0.00 0.01 0.02 0.01 0.04 0.04 0.04 0.03 0.04 0.07 0.07 0.07 0.09 0.08 0.05 0.04 0.04 0.02 0.00 0.00 0.00 0.00 0.00 0.00 0.00 0.00 0.00 0.00 0.00 0.00 0.00 0.00 0.00 0.00 0.00 0.00
0.00 0.00 0.00 0.01 0.00 0.00 0.00 0.02 0.03 0.01 0.01 0.04 0.05 0.05 0.05 0.04 0.05 0.04 0.04 0.06 0.06 0.04 0.03 0.02 0.01 0.00 0.00 0.00 0.00 0.00 0.00 0.00 0.00 0.00 0.00 0.00 0.00 0.00 0.00 0.00 0.00 0.00 0.00
0.00 0.00 0.00 0.00 0.00 0.00 0.00 0.02 0.04 0.07 0.03 0.03 0.05 0.06 0.04 0.01 0.01 0.01 0.01 0.04 0.04 0.02 0.01 0.01 0.00 0.00 0.00 0.00 0.00 0.00 0.00 0.00 0.00 0.00 0.00 0.00 0.00 0.00 0.00 0.00 0.00 0.00 0.00
0.00 0.00 0.00 0.00 0.00 0.00 0.00 0.00 0.05 0.03 0.03 0.06 0.04 0.04 0.03 0.00 0.00 0.01 0.02 0.02 0.02 0.02 0.01 0.00 0.00 0.00 0.00 0.00 0.00 0.00 0.00 0.00 0.00 0.00 0.00 0.00 0.00 0.00 0.00 0.00 0.00 0.00 0.00
0.00 0.00 0.00 0.00 0.00 0.00 0.00 0.01 0.06 0.10 0.06 0.10 0.08 0.05 0.03 0.01 0.00 0.02 0.03 0.02 0.02 0.02 0.01 0.00 0.00 0.00 0.00 0.00 0.00 0.00 0.00 0.00 0.00 0.00 0.00 0.00 0.00 0.00 0.00 0.00 0.00 0.00 0.00
0.00 0.00 0.00 0.00 0.00 0.00 0.00 0.01 0.05 0.14 0.13 0.12 0.10 0.05 0.03 0.01 0.01 0.02 0.03 0.03 0.02 0.02 0.01 0.00 0.00 0.00 0.00 0.00 0.00 0.00 0.00 0.00 0.00 0.00 0.00 0.00 0.00 0.00 0.00 0.00 0.00 0.00 0.00
0.00 0.00 0.00 0.00 0.00 0.00 0.00 0.00 0.04 0.11 0.14 0.13 0.08 0.04 0.02 0.01 0.01 0.02 0.03 0.03 0.02 0.01 0.00 0.00 0.00 0.00 0.00 0.00 0.00 0.00 0.00 0.00 0.00 0.00 0.00 0.00 0.00 0.00 0.00 0.00 0.00 0.00 0.00
0.00 0.00 0.00 0.00 0.00 0.00 0.00 0.00 0.02 0.02 0.07 0.09 0.10 0.05 0.03 0.01 0.00 0.01 0.02 0.02 0.01 0.00 0.00 0.00 0.00 0.00 0.00 0.00 0.00 0.00 0.00 0.00 0.00 0.00 0.00 0.00 0.00 0.00 0.00 0.00 0.00 0.00 0.00
0.00 0.00 0.00 0.00 0.00 0.00 0.00 0.00 0.03 0.03 0.01 0.03 0.03 0.06 0.05 0.03 0.01 0.01 0.01 0.01 0.01 0.00 0.00 0.00 0.00 0.00 0.00 0.00 0.00 0.00 0.00 0.00 0.00 0.00 0.00 0.00 0.00 0.00 0.00 0.00 0.00 0.00 0.00
0.00 0.00 0.00 0.00 0.00 0.00 0.00 0.02 0.04 0.05 0.01 0.02 0.02 0.01 0.04 0.04 0.02 0.00 0.01 0.02 0.01 0.00 0.00 0.00 0.00 0.00 0.00 0.00 0.00 0.00 0.00 0.00 0.00 0.00 0.00 0.00 0.00 0.00 0.00 0.00 0.00 0.00 0.00
0.00 0.00 0.00 0.00 0.00 0.00 0.01 0.03 0.08 0.03 0.01 0.00 0.00 0.01 0.02 0.04 0.02 0.01 0.00 0.01 0.01 0.00 0.00 0.00 0.00 0.00 0.00 0.00 0.00 0.00 0.00 0.00 0.00 0.00 0.00 0.00 0.00 0.00 0.00 0.00 0.00 0.00 0.00
0.00 0.00 0.00 0.00 0.00 0.00 0.01 0.03 0.05 0.01 0.00 0.00 0.00 0.00 0.01 0.02 0.01 0.00 0.00 0.00 0.00 0.00 0.00 0.00 0.00 0.00 0.00 0.00 0.00 0.00 0.00 0.00 0.00 0.00 0.00 0.00 0.00 0.00 0.00 0.00 0.00 0.00 0.00
0.00 0.00 0.00 0.00 0.00 0.00 0.00 0.02 0.02 0.01 0.00 0.00 0.00 0.01 0.01 0.01 0.00 0.00 0.00 0.00 0.00 0.00 0.00 0.00 0.00 0.00 0.00 0.00 0.00 0.00 0.00 0.00 0.00 0.00 0.00 0.00 0.00 0.00 0.00 0.00 0.00 0.00 0.00
0.00 0.00 0.00 0.00 0.00 0.00 0.00 0.01 0.01 0.02 0.01 0.01 0.01 0.04 0.05 0.04 0.01 0.00 0.00 0.00 0.00 0.00 0.00 0.00 0.00 0.00 0.00 0.00 0.00 0.00 0.00 0.00 0.00 0.00 0.00 0.00 0.00 0.00 0.00 0.00 0.00 0.00 0.00
0.00 0.00 0.00 0.00 0.00 0.00 0.00 0.01 0.02 0.00 0.00 0.01 0.00 0.01 0.02 0.02 0.00 0.00 0.00 0.00 0.00 0.00 0.00 0.00 0.00 0.00 0.00 0.00 0.00 0.00 0.00 0.00 0.00 0.00 0.00 0.00 0.00 0.00 0.00 0.00 0.00 0.00 0.00
0.00 0.00 0.00 0.00 0.01 0.02 0.01 0.02 0.02 0.01 0.00 0.01 0.01 0.00 0.00 0.00 0.00 0.00 0.00 0.00 0.00 0.00 0.00 0.00 0.00 0.00 0.00 0.00 0.00 0.00 0.00 0.00 0.00 0.00 0.00 0.00 0.00 0.00 0.00 0.00 0.00 0.00 0.00
0.00 0.00 0.00 0.00 0.02 0.03 0.03 0.04 0.03 0.02 0.00 0.00 0.00 0.00 0.00 0.00 0.00 0.00 0.00 0.00 0.00 0.00 0.00 0.00 0.00 0.00 0.00 0.00 0.00 0.00 0.00 0.00 0.00 0.00 0.00 0.00 0.00 0.00 0.00 0.00 0.00 0.00 0.00
0.01 0.00 0.00 0.01 0.05 0.07 0.06 0.04 0.02 0.00 0.00 0.00 0.00 0.00 0.00 0.00 0.00 0.00 0.00 0.00 0.00 0.00 0.00 0.00 0.00 0.00 0.00 0.00 0.00 0.00 0.00 0.00 0.00 0.00 0.00 0.00 0.00 0.00 0.00 0.00 0.00 0.00 0.00
0.02 0.02 0.02 0.03 0.05 0.05 0.04 0.04 0.03 0.01 0.00 0.00 0.00 0.00 0.00 0.00 0.00 0.00 0.00 0.00 0.00 0.00 0.00 0.00 0.00 0.00 0.00 0.00 0.00 0.00 0.00 0.00 0.00 0.00 0.00 0.00 0.00 0.00 0.00 0.00 0.00 0.00 0.00
0.02 0.01 0.04 0.06 0.06 0.02 0.01 0.02 0.02 0.00 0.00 0.00 0.00 0.00 0.00 0.00 0.00 0.00 0.00 0.00 0.00 0.00 0.00 0.00 0.00 0.00 0.00 0.00 0.00 0.00 0.00 0.00 0.00 0.00 0.00 0.00 0.00 0.00 0.00 0.00 0.00 0.00 0.00
0.02 0.03 0.05 0.07 0.06 0.01 0.00 0.00 0.00 0.00 0.00 0.00 0.00 0.00 0.00 0.00 0.00 0.00 0.00 0.00 0.00 0.00 0.00 0.00 0.00 0.00 0.00 0.00 0.00 0.00 0.00 0.00 0.00 0.00 0.00 0.00 0.00 0.00 0.00 0.00 0.00 0.00 0.00
0.01 0.03 0.06 0.05 0.05 0.02 0.00 0.00 0.00 0.00 0.00 0.00 0.00 0.00 0.00 0.00 0.00 0.00 0.00 0.00 0.00 0.00 0.00 0.00 0.00 0.00 0.00 0.00 0.00 0.00 0.00 0.00 0.00 0.00 0.00 0.00 0.00 0.00 0.00 0.00 0.00 0.00 0.00
0.00 0.01 0.02 0.02 0.03 0.01 0.00 0.00 0.00 0.00 0.00 0.00 0.00 0.00 0.00 0.00 0.00 0.00 0.00 0.00 0.00 0.00 0.00 0.00 0.00 0.00 0.00 0.00 0.00 0.00 0.00 0.00 0.00 0.00 0.00 0.00 0.00 0.00 0.00 0.00 0.00 0.00 0.00
0.00 0.01 0.01 0.00 0.00 0.00 0.00 0.00 0.00 0.00 0.00 0.00 0.00 0.00 0.00 0.00 0.00 0.00 0.00 0.00 0.00 0.00 0.00 0.00 0.00 0.00 0.00 0.00 0.00 0.00 0.00 0.00 0.00 0.00 0.00 0.00 0.00 0.00 0.00 0.00 0.00 0.00 0.00
MSLP
1005.92 1005.78 1005.51 1004.99 1004.42 1004.11 1003.76 1003.28 1003.05 1002.59 1002.72 1002.96 1003.36 1003.88 1004.17 1004.41 1004.43 1005.40 1006.30 1007.10 1007.72 1008.49 1009.00 1009.71 1010.41 1010.80 1011.52 1012.14 1012.27 1013.03 1013.90 1014.40 1015.88 1017.09 1017.54 1017.49 1017.43 1017.42 1017.83 1018.36 1018.44 1018.76 1018.96
1005.58 1005.42 1005.14 1004.72 1004.21 1003.96 1003.48 1002.93 1002.41 1002.05 1001.89 1001.99 1002.36 1002.73 1003.03 1003.43 1003.91 1004.78 1005.30 1006.28 1007.26 1007.67 1008.50 1009.92 1010.26 1010.76 1011.70 1011.98 1012.38 1012.93 1013.78 1014.03 1014.88 1016.23 1017.44 1017.56 1017.41 1017.76 1018.10 1018.46 1018.51 1018.74 1019.05
1005.15 1005.12 1004.92 1004.60 1004.18 1003.69 1003.08 1002.48 1001.91 1001.43 1001.20 1001.41 1001.48 1001.71 1001.93 1002.50 1002.95 1003.80 1004.75 1005.62 1006.62 1007.03 1008.20 1009.28 1009.89 1010.68 1011.54 1012.24 1012.60 1012.84 1013.54 1013.79 1014.63 1015.73 1017.41 1017.56 1017.70 1018.05 1018.59 1018.79 1018.80 1019.09 1019.10
1004.56 1004.56 1004.50 1004.18 1003.75 1003.30 1002.75 1002.06 1001.37 1000.93 1000.54 1000.60 1000.89 1000.93 1001.20 1001.63 1002.44 1003.15 1003.90 1005.60 1006.22 1007.07 1008.15 1008.62 1009.63 1010.31 1010.79 1011.82 1012.22 1012.76 1013.40 1014.16 1014.89 1016.11 1017.25 1017.55 1017.88 1018.38 1018.58 1018.88 1019.17 1019.40 1019.30
1004.07 1003.92 1003.77 1003.54 1003.22 1002.69 1002.16 1001.50 1000.78 1000.24 999.84 999.69 1000.27 1000.47 1000.79 1001.23 1001.63 1002.79 1003.91 1005.02 1006.34 1007.43 1008.00 1008.65 1009.48 1010.02 1010.18 1011.03 1011.73 1012.73 1013.22 1014.18 1015.40 1016.24 1017.38 1017.70 1018.04 1018.56 1018.82 1018.86 1019.22 1019.54 1019.55
1003.65 1003.42 1003.08 1003.06 1002.72 1002.09 1001.57 1000.86 1000.20 999.54 999.32 999.23 999.46 999.72 1000.02 1000.35 1001.14 1002.27 1003.13 1004.42 1005.83 1006.88 1007.86 1008.80 1009.52 1009.72 1010.49 1011.04 1011.53 1012.09 1012.44 1013.58 1015.23 1016.22 1017.18 1017.40 1017.80 1018.16 1018.52 1018.73 1019.33 1019.87 1019.91
1002.94 1002.87 1002.67 1002.43 1002.14 1001.47 1000.83 1000.19 999.63 998.84 998.74 998.57 998.80 998.83 999.06 999.84 1001.21 1002.00 1002.80 1004.29 1005.61 1006.61 1007.56 1008.52 1009.42 1009.83 1010.60 1011.15 1011.81 1012.35 1012.90 1013.38 1013.64 1014.63 1016.09 1016.74 1017.27 1017.82 1018.17 1018.75 1019.28 1019.56 1019.84
1002.30 1002.20 1001.90 1001.60 1001.24 1000.65 1000.18 999.89 999.13 998.09 998.02 997.93 998.07 998.24 998.86 999.75 1000.18 1001.76 1002.91 1004.12 1005.36 1006.43 1007.25 1007.99 1008.85 1009.94 1010.52 1011.08 1011.87 1012.70 1013.48 1013.98 1014.05 1014.60 1015.10 1015.93 1016.38 1017.34 1017.68 1018.07 1018.83 1019.35 1019.70
1001.62 1001.36 1001.01 1000.79 1000.44 1000.02 999.61 999.21 998.25 997.48 997.33 997.24 997.26 997.72 997.90 999.32 1000.16 1001.47 1002.62 1004.00 1005.24 1006.35 1007.24 1007.88 1008.72 1009.74 1010.56 1010.91 1011.71 1012.94 1014.05 1014.65 1014.60 1014.97 1015.26 1015.66 1016.53 1017.20 1017.46 1018.04 1019.09 1019.46 1020.08
1000.72 1000.26 1000.10 999.98 999.72 999.21 998.76 998.38 997.47 996.83 996.61 996.71 997.12 997.01 997.53 998.92 1000.08 1001.33 1002.26 1003.59 1005.10 1006.22 1007.33 1008.29 1008.76 1009.39 1010.55 1010.97 1011.47 1012.70 1013.91 1014.70 1015.12 1015.75 1015.84 1016.18 1017.03 1017.50 1017.67 1017.85 1018.70 1019.49 1020.02
999.65 999.32 999.14 999.06 998.84 998.36 997.88 997.54 997.00 996.68 996.34 996.78 997.19 998.00 997.22 998.67 1000.12 1000.73 1001.74 1002.90 1004.24 1005.75 1007.04 1008.52 1009.11 1009.42 1010.66 1011.00 1011.58 1012.38 1013.18 1014.22 1015.30 1015.76 1016.30 1016.75 1017.61 1018.09 1018.38 1018.54 1018.76 1019.02 1019.70
998.64 998.33 998.21 998.26 998.03 997.52 997.04 996.66 996.22 996.15 996.23 996.83 997.40 997.82 998.67 998.57 999.39 1000.65 1001.20 1002.30 1003.79 1005.17 1006.61 1007.87 1009.10 1009.74 1010.64 1011.30 1012.02 1012.67 1013.44 1014.30 1015.19 1016.00 1016.66 1017.47 1018.22 1018.79 1018.86 1018.90 1018.98 1019.35 1019.48
997.68 997.42 997.30 997.40 997.24 996.65 996.27 995.72 995.52 995.58 995.89 996.30 996.81 997.44 998.76 999.17 999.14 1000.64 1001.61 1002.76 1004.09 1005.35 1006.39 1007.76 1008.93 1010.00 1010.88 1011.62 1012.19 1013.08 1013.63 1014.38 1015.23 1016.02 1016.80 1017.63 1018.21 1018.80 1019.04 1019.24 1019.44 1019.72 1020.03
996.56 996.40 996.53 996.44 996.21 995.63 995.11 994.58 994.36 994.66 995.12 995.76 996.39 997.03 997.75 999.03 999.16 1001.06 1002.15 1003.18 1004.56 1005.53 1006.98 1008.32 1009.28 1010.07 1010.96 1011.73 1012.69 1013.54 1013.80 1014.26 1014.84 1015.82 1016.53 1017.48 1018.20 1018.97 1019.35 1019.37 1019.83 1020.22 1020.62
995.69 995.60 995.35 995.19 994.97 994.41 994.05 993.64 993.28 993.59 993.91 994.81 995.92 996.64 997.61 998.66 999.16 999.95 1001.37 1002.82 1004.19 1005.48 1006.61 1008.33 1009.54 1010.30 1011.32 1011.94 1012.78 1013.30 1013.73 1014.28 1015.08 1015.58 1016.46 1017.49 1018.26 1018.76 1019.33 1019.60 1019.97 1020.40 1020.85
994.56 994.35 994.16 993.98 993.87 993.57 993.20 992.97 992.94 992.95 993.43 994.10 994.53 995.18 996.74 997.78 999.24 1000.57 1001.51 1002.55 1004.04 1005.35 1006.54 1007.98 1008.95 1009.66 1010.64 1011.32 1012.23 1012.87 1013.46 1013.96 1014.80 1015.16 1016.06 1017.02 1017.89 1018.40 1019.03 1019.53 1020.01 1020.39 1020.89
993.34 993.24 993.16 992.91 992.63 992.56 992.16 992.44 993.19 993.60 993.55 994.20 995.12 996.02 996.64 998.06 999.80 1000.52 1001.70 1002.87 1004.10 1005.17 1005.95 1007.10 1008.11 1009.25 1010.03 1010.88 1011.66 1012.28 1013.02 1013.67 1014.28 1015.03 1015.91 1016.68 1017.37 1017.98 1018.63 1019.33 1020.04 1020.48 1020.95
992.12 992.12 992.21 991.97 991.64 991.46 991.43 991.95 992.82 993.38 994.39 995.70 996.22 996.59 997.62 998.58 999.76 1000.79 1002.07 1003.50 1005.27 1005.51 1005.86 1006.47 1007.53 1008.48 1009.54 1010.28 1011.04 1011.80 1012.61 1013.33 1014.06 1014.90 1015.81 1016.48 1017.13 1017.72 1018.41 1019.00 1019.78 1020.23 1020.60
990.97 990.86 990.80 990.80 990.52 990.59 991.04 991.94 992.93 993.58 994.74 996.02 997.16 998.04 998.50 999.19 999.93 1000.46 1001.93 1002.90 1004.38 1005.31 1005.63 1006.35 1007.17 1008.15 1008.86 1009.66 1010.50 1011.31 1012.14 1012.79 1013.64 1014.60 1015.50 1016.18 1016.80 1017.44 1018.08 1018.85 1019.64 1019.99 1020.30
989.96 989.76 989.59 989.76 989.95 990.19 990.94 991.62 992.54 993.60 994.84 995.80 997.11 998.33 999.75 1000.44 1001.08 1001.98 1002.46 1003.37 1004.17 1004.68 1005.36 1006.06 1006.88 1007.67 1008.56 1009.45 1010.36 1011.15 1012.11 1012.86 1013.62 1014.33 1015.02 1015.81 1016.54 1017.05 1017.69 1018.54 1019.34 1019.79 1020.08
988.89 988.87 989.04 989.51 990.10 990.57 991.19 991.76 992.54 993.75 994.88 996.16 997.22 998.03 998.74 999.40 1000.64 1001.40 1002.34 1003.14 1003.72 1004.39 1004.95 1005.52 1006.33 1007.36 1008.29 1009.10 1010.25 1011.12 1011.87 1012.71 1013.46 1014.06 1014.87 1015.60 1016.33 1017.00 1017.43 1018.20 1018.91 1019.38 1019.85
988.46 988.86 989.22 989.52 990.06 990.66 991.34 992.16 992.82 993.87 994.92 995.81 997.20 998.38 998.99 999.62 1000.33 1001.18 1002.08 1002.86 1003.38 1003.83 1004.52 1005.29 1006.20 1007.06 1007.90 1008.70 1009.78 1010.74 1011.60 1012.52 1013.32 1013.93 1014.65 1015.44 1016.27 1016.70 1017.44 1018.13 1018.85 1019.46 1019.82
988.38 988.69 989.18 989.56 990.12 990.91 991.69 992.57 993.31 994.05 995.08 996.04 997.02 998.35 999.26 999.92 1000.57 1001.35 1002.11 1002.58 1003.22 1004.05 1004.70 1005.46 1006.44 1007.17 1007.88 1008.75 1009.49 1010.23 1011.18 1012.10 1012.79 1013.45 1014.42 1015.29 1016.06 1016.62 1017.26 1017.98 1018.68 1019.43 1019.70
988.52 988.78 989.16 989.80 990.22 991.10 991.93 992.88 993.73 994.47 995.26 996.27 997.25 998.17 999.08 999.98 1000.84 1001.49 1002.11 1002.68 1003.46 1004.40 1004.90 1005.55 1006.31 1007.04 1007.91 1008.84 1009.51 1010.02 1010.78 1011.64 1012.44 1013.15 1013.72 1014.88 1015.86 1016.56 1017.37 1018.05 1018.58 1018.98 1019.23
989.05 989.22 989.74 990.21 990.76 991.56 992.46 992.95 993.85 994.85 995.52 996.23 997.20 998.13 999.32 1000.23 1000.99 1001.86 1002.47 1003.08 1003.73 1004.19 1004.95 1005.77 1006.62 1007.29 1007.86 1008.68 1009.39 1009.94 1010.70 1011.63 1012.32 1012.92 1013.69 1014.55 1015.48 1016.38 1017.11 1017.68 1018.29 1018.95 1019.24
989.96 990.19 990.50 990.85 991.44 992.04 992.60 993.47 994.35 994.99 995.82 996.67 997.49 998.44 999.33 1000.42 1001.41 1002.23 1002.90 1003.35 1004.05 1005.03 1005.59 1006.23 1006.97 1007.33 1008.12 1008.81 1009.20 1010.00 1010.82 1011.53 1012.40 1012.99 1013.71 1014.55 1015.49 1016.30 1016.92 1017.60 1018.16 1018.60 1019.02
Thickness
5630 5630 5634 5639 5645 5647 5650 5653 5654 5657 5660 5669 5676 5679 5685 5696 5704 5701 5700 5700 5703 5701 5702 5702 5699 5701 5699 5698 5698 5697 5689 5684 5672 5660 5654 5653 5650 5646 5635 5622 5614 5606 5596
5621 5621 5622 5627 5632 5634 5638 5643 5648 5651 5654 5663 5672 5676 5684 5692 5697 5696 5698 5697 5697 5703 5700 5691 5694 5694 5691 5693 5692 5694 5687 5683 5675 5665 5651 5650 5647 5642 5631 5620 5613 5604 5595
5613 5612 5610 5611 5615 5621 5627 5631 5637 5645 5649 5653 5665 5674 5683 5689 5694 5695 5694 5691 5692 5699 5694 5690 5690 5689 5685 5683 5686 5688 5683 5680 5674 5667 5647 5645 5640 5637 5624 5616 5610 5602 5593
5605 5604 5602 5601 5604 5609 5614 5619 5626 5635 5643 5648 5658 5671 5678 5685 5687 5688 5689 5682 5686 5689 5687 5688 5686 5684 5684 5681 5684 5682 5678 5672 5664 5655 5643 5641 5637 5631 5622 5614 5607 5597 5591
5595 5594 5595 5594 5597 5600 5605 5610 5620 5628 5638 5646 5654 5664 5670 5677 5683 5680 5676 5675 5676 5676 5679 5680 5679 5679 5683 5682 5683 5677 5674 5665 5656 5649 5638 5634 5633 5627 5619 5613 5605 5595 5588
5583 5584 5587 5585 5587 5592 5597 5603 5614 5624 5632 5640 5651 5660 5667 5677 5677 5673 5668 5670 5671 5672 5672 5669 5669 5675 5673 5676 5676 5677 5676 5667 5650 5643 5634 5633 5630 5624 5617 5612 5602 5592 5586
5575 5574 5576 5577 5578 5584 5590 5596 5606 5620 5628 5636 5649 5660 5668 5671 5666 5668 5671 5669 5667 5669 5666 5664 5663 5668 5667 5668 5667 5667 5665 5664 5663 5653 5639 5632 5629 5622 5615 5606 5599 5592 5583
5570 5567 5568 5571 5574 5579 5583 5586 5596 5614 5625 5635 5648 5656 5662 5662 5663 5660 5659 5664 5662 5662 5662 5662 5662 5660 5661 5662 5660 5658 5655 5653 5652 5649 5643 5635 5632 5622 5616 5610 5600 5591 5583
5564 5561 5562 5564 5568 5574 5577 5580 5594 5610 5622 5636 5648 5652 5665 5658 5659 5660 5660 5656 5654 5653 5654 5655 5656 5655 5653 5656 5656 5649 5643 5639 5642 5640 5638 5634 5626 5618 5613 5606 5595 5589 5579
5558 5558 5558 5559 5563 5570 5575 5579 5594 5608 5620 5632 5640 5655 5658 5655 5652 5653 5654 5651 5647 5647 5646 5643 5648 5651 5645 5649 5652 5646 5638 5632 5632 5627 5628 5625 5617 5611 5607 5605 5595 5586 5575
5550 5554 5555 5555 5560 5568 5575 5581 5592 5604 5613 5619 5626 5631 5646 5646 5645 5648 5649 5651 5648 5645 5643 5636 5639 5642 5637 5642 5644 5642 5639 5631 5624 5623 5620 5616 5607 5602 5599 5596 5593 5587 5576
5543 5548 5551 5551 5558 5568 5574 5583 5594 5601 5607 5608 5618 5624 5627 5638 5644 5640 5645 5647 5642 5642 5639 5635 5631 5631 5629 5631 5634 5631 5628 5624 5619 5616 5612 5603 5597 5592 5591 5590 5588 5582 5577
5534 5542 5546 5549 5555 5565 5574 5585 5594 5600 5604 5608 5613 5619 5619 5621 5635 5632 5635 5636 5630 5633 5632 5626 5623 5620 5620 5623 5623 5619 5618 5616 5613 5610 5603 5596 5591 5587 5584 5582 5579 5575 5570
5532 5538 5541 5548 5555 5566 5579 5589 5599 5604 5608 5607 5612 5618 5620 5616 5629 5623 5625 5625 5621 5623 5616 5612 5614 5616 5616 5616 5613 5608 5610 5610 5610 5605 5599 5590 5586 5581 5576 5576 5572 5567 5561
5530 5536 5545 5552 5559 5573 5583 5593 5604 5611 5617 5612 5612 5616 5616 5620 5627 5631 5628 5626 5621 5617 5616 5608 5606 5610 5608 5610 5605 5604 5603 5603 5599 5597 5593 5584 5579 5577 5571 5568 5566 5562 5555
5532 5541 5549 5557 5562 5574 5586 5593 5595 5611 5611 5612 5624 5628 5623 5621 5619 5618 5619 5620 5614 5610 5611 5607 5607 5610 5608 5607 5603 5601 5600 5600 5595 5594 5589 5581 5575 5574 5568 5564 5560 5557 5551
5537 5545 5552 5559 5571 5580 5594 5597 5597 5597 5604 5611 5615 5615 5619 5616 5611 5614 5612 5611 5608 5607 5612 5610 5610 5606 5605 5603 5602 5599 5595 5594 5592 5589 5584 5577 5572 5568 5565 5561 5555 5551 5545
5545 5549 5556 5565 5576 5586 5594 5598 5598 5602 5609 5602 5600 5611 5608 5608 5607 5606 5601 5598 5593 5599 5606 5610 5608 5606 5602 5602 5599 5595 5592 5589 5585 5582 5577 5572 5568 5563 5558 5556 5551 5547 5542
5551 5558 5565 5571 5580 5589 5594 5595 5593 5598 5599 5593 5592 5592 5596 5599 5602 5603 5598 5602 5600 5598 5605 5606 5604 5600 5601 5599 5595 5592 5588 5586 5581 5575 5571 5567 5564 5560 5553 5550 5545 5541 5538
5556 5564 5572 5579 5584 5590 5589 5592 5593 5594 5592 5596 5591 5587 5583 5587 5591 5589 5593 5592 5594 5597 5599 5598 5599 5597 5595 5592 5588 5585 5580 5577 5573 5569 5567 5562 5558 5556 5551 5544 5540 5538 5536
5568 5572 5573 5579 5579 5580 5582 5588 5593 5589 5590 5586 5585 5585 5587 5596 5592 5590 5588 5588 5592 5594 5597 5598 5597 5592 5588 5585 5579 5575 5573 5569 5565 5563 5559 5556 5552 5548 5546 5542 5537 5534 5529
5568 5569 5575 5576 5576 5576 5582 5584 5587 5587 5588 5585 5580 5577 5578 5590 5590 5589 5588 5588 5590 5593 5593 5591 5588 5585 5582 5579 5573 5569 5566 5562 5557 5554 5553 5549 5545 5544 5540 5535 5531 5526 5522
5568 5571 5570 5574 5577 5571 5578 5580 5580 5584 5582 5582 5580 5577 5580 5583 5583 5584 5584 5585 5586 5585 5583 5581 5577 5575 5573 5570 5568 5565 5560 5555 5552 5550 5546 5542 5539 5537 5534 5530 5525 5517 5514
5567 5570 5572 5572 5575 5577 5577 5574 5575 5575 5579 5576 5579 5580 5580 5579 5577 5578 5579 5580 5579 5576 5576 5574 5572 5570 5567 5563 5560 5558 5555 5552 5549 5546 5544 5538 5531 5527 5524 5520 5516 5513 5509
5564 5569 5570 5572 5575 5575 5573 5575 5573 5569 5573 5578 5579 5580 5576 5574 5573 5572 5572 5573 5573 5574 5571 5569 5564 5562 5561 5557 5554 5554 5551 5546 5543 5541 5537 5532 5526 5522 5518 5514 5510 5504 5500
5560 5563 5564 5567 5567 5569 5571 5572 5571 5573 5574 5575 5576 5576 5573 5570 5567 5565 5564 5566 5566 5561 5561 5560 5556 5559 5554 5551 5552 5549 5545 5541 5535 5533 5529 5523 5519 5514 5510 5506 5503 5500 5495